Time,TemperatureF,DewpointF,PressureIn,WindDirection,WindDirectionDegrees,WindSpeedMPH,WindSpeedGustMPH,Humidity,HourlyPrecipIn,Conditions,Clouds,dailyrainin,SolarRadiationWatts/m^2,SoftwareType,DateUTC
2013-11-05 00:01:00,33.4,25.7,30.58,SSE,154,0.0,0.0,73,0.00,,CLR,0.00,0.00,VWS V14.01,2013-11-05 05:01:00,
2013-11-05 00:02:00,33.4,25.7,30.58,SSE,154,0.0,0.0,73,0.00,,CLR,0.00,0.00,VWS V14.01,2013-11-05 05:02:00,
2013-11-05 00:03:00,33.4,26.0,30.58,SSE,154,0.0,0.0,74,0.00,,CLR,0.00,0.00,VWS V14.01,2013-11-05 05:03:00,
2013-11-05 00:06:00,33.4,26.3,30.58,SSE,154,0.0,0.0,75,0.00,,CLR,0.00,0.00,VWS V14.01,2013-11-05 05:06:00,
2013-11-05 00:11:00,33.3,26.2,30.58,SSE,154,0.0,0.0,75,0.00,,CLR,0.00,0.00,VWS V14.01,2013-11-05 05:11:00,
2013-11-05 00:16:00,33.1,26.0,30.58,SSE,154,0.0,0.0,75,0.00,,CLR,0.00,0.00,VWS V14.01,2013-11-05 05:16:00,
2013-11-05 00:21:00,33.1,26.0,30.58,SSE,154,0.0,0.0,75,0.00,,CLR,0.00,0.00,VWS V14.01,2013-11-05 05:21:00,
2013-11-05 00:26:00,33.0,26.0,30.58,SSE,154,0.0,0.0,75,0.00,,CLR,0.00,0.00,VWS V14.01,2013-11-05 05:26:00,
2013-11-05 00:31:00,33.0,25.6,30.58,SSE,154,0.0,0.0,74,0.00,,CLR,0.00,0.00,VWS V14.01,2013-11-05 05:31:00,
2013-11-05 00:36:00,33.1,25.7,30.57,SSE,154,0.0,0.0,74,0.00,,CLR,0.00,0.00,VWS V14.01,2013-11-05 05:36:00,
2013-11-05 00:41:00,33.1,25.7,30.57,SSE,154,0.0,0.0,74,0.00,,CLR,0.00,0.00,VWS V14.01,2013-11-05 05:41:00,
2013-11-05 00:47:00,33.3,26.2,30.57,SSE,154,0.0,0.0,75,0.00,,CLR,0.00,0.00,VWS V14.01,2013-11-05 05:47:00,
2013-11-05 00:52:00,33.3,26.6,30.57,SSE,154,0.0,0.0,76,0.00,,CLR,0.00,0.00,VWS V14.01,2013-11-05 05:52:00,
2013-11-05 00:57:00,33.3,26.9,30.57,SSE,154,0.0,0.0,77,0.00,,CLR,0.00,0.00,VWS V14.01,2013-11-05 05:57:00,
2013-11-05 01:02:00,33.4,27.0,30.57,SSE,154,0.0,0.0,77,0.00,,CLR,0.00,0.00,VWS V14.01,2013-11-05 06:02:00,
2013-11-05 01:07:00,33.4,27.3,30.57,SSE,154,0.0,0.0,78,0.00,,CLR,0.00,0.00,VWS V14.01,2013-11-05 06:07:00,
2013-11-05 01:12:00,33.6,27.8,30.57,SSE,154,0.0,0.0,79,0.00,,CLR,0.00,0.00,VWS V14.01,2013-11-05 06:12:00,
2013-11-05 01:17:00,33.4,27.6,30.57,SSE,154,0.0,0.0,79,0.00,,CLR,0.00,0.00,VWS V14.01,2013-11-05 06:17:00,
2013-11-05 01:22:00,33.3,26.9,30.55,SSE,154,0.0,0.0,77,0.00,,CLR,0.00,0.00,VWS V14.01,2013-11-05 06:22:00,
2013-11-05 01:27:00,33.3,27.2,30.55,SSE,154,0.0,0.0,78,0.00,,CLR,0.00,0.00,VWS V14.01,2013-11-05 06:27:00,
2013-11-05 01:32:00,33.1,27.0,30.55,SSE,154,0.0,0.0,78,0.00,,CLR,0.00,0.00,VWS V14.01,2013-11-05 06:32:00,
2013-11-05 01:37:00,33.1,27.0,30.55,SSE,154,0.0,0.0,78,0.00,,CLR,0.00,0.00,VWS V14.01,2013-11-05 06:37:00,
2013-11-05 01:42:00,33.1,27.0,30.55,SSE,154,0.0,0.0,78,0.00,,CLR,0.00,0.00,VWS V14.01,2013-11-05 06:42:00,
2013-11-05 01:48:00,33.1,27.3,30.55,SSE,154,0.0,0.0,79,0.00,,CLR,0.00,0.00,VWS V14.01,2013-11-05 06:48:00,
2013-11-05 01:53:00,33.1,27.3,30.56,SSE,154,0.0,0.0,79,0.00,,CLR,0.00,0.00,VWS V14.01,2013-11-05 06:53:00,
2013-11-05 01:58:00,33.0,27.5,30.56,SSE,154,0.0,0.0,80,0.00,,CLR,0.00,0.00,VWS V14.01,2013-11-05 06:58:00,
2013-11-05 02:03:00,33.1,27.6,30.56,SSE,154,0.0,0.0,80,0.00,,CLR,0.00,0.00,VWS V14.01,2013-11-05 07:03:00,
2013-11-05 02:08:00,33.0,27.8,30.56,SSE,154,0.0,0.0,81,0.00,,CLR,0.00,0.00,VWS V14.01,2013-11-05 07:08:00,
2013-11-05 02:13:00,32.8,27.6,30.56,SSE,154,0.0,0.0,81,0.00,,CLR,0.00,0.00,VWS V14.01,2013-11-05 07:13:00,
2013-11-05 02:18:00,32.8,27.6,30.56,SSE,154,0.0,0.0,81,0.00,,CLR,0.00,0.00,VWS V14.01,2013-11-05 07:18:00,
2013-11-05 02:23:00,32.8,27.6,30.56,SSE,154,0.0,0.0,81,0.00,,CLR,0.00,0.00,VWS V14.01,2013-11-05 07:23:00,
2013-11-05 02:28:00,32.8,27.6,30.56,SSE,154,0.0,0.0,81,0.00,,CLR,0.00,0.00,VWS V14.01,2013-11-05 07:28:00,
2013-11-05 02:33:00,32.8,27.6,30.57,SSE,154,0.0,0.0,81,0.00,,CLR,0.00,0.00,VWS V14.01,2013-11-05 07:33:00,
2013-11-05 02:38:00,32.7,27.5,30.57,SSE,154,0.0,0.0,81,0.00,,CLR,0.00,0.00,VWS V14.01,2013-11-05 07:38:00,
2013-11-05 02:43:00,32.7,27.5,30.57,SSE,154,0.0,0.0,81,0.00,,CLR,0.00,0.00,VWS V14.01,2013-11-05 07:43:00,
2013-11-05 02:48:00,32.7,27.8,30.56,SSE,154,0.0,0.0,82,0.00,,CLR,0.00,0.00,VWS V14.01,2013-11-05 07:48:00,
2013-11-05 02:54:00,32.7,27.8,30.56,SSE,154,0.0,0.0,82,0.00,,CLR,0.00,0.00,VWS V14.01,2013-11-05 07:54:00,
2013-11-05 02:59:00,32.7,27.8,30.56,SSE,154,0.0,0.0,82,0.00,,CLR,0.00,0.00,VWS V14.01,2013-11-05 07:59:00,
2013-11-05 03:04:00,32.7,27.8,30.57,SSE,154,0.0,0.0,82,0.00,,CLR,0.00,0.00,VWS V14.01,2013-11-05 08:04:00,
2013-11-05 03:09:00,32.7,27.8,30.57,SSE,154,0.0,0.0,82,0.00,,CLR,0.00,0.00,VWS V14.01,2013-11-05 08:09:00,
2013-11-05 03:14:00,32.7,28.1,30.57,SSE,154,0.0,0.0,83,0.00,,CLR,0.00,0.00,VWS V14.01,2013-11-05 08:14:00,
2013-11-05 03:19:00,32.7,28.1,30.57,SSE,154,0.0,0.0,83,0.00,,CLR,0.00,0.00,VWS V14.01,2013-11-05 08:19:00,
2013-11-05 03:24:00,32.5,27.9,30.57,SSE,154,0.0,0.0,83,0.00,,CLR,0.00,0.00,VWS V14.01,2013-11-05 08:24:00,
2013-11-05 03:29:00,32.4,27.8,30.57,SSE,154,0.0,0.0,83,0.00,,CLR,0.00,0.00,VWS V14.01,2013-11-05 08:29:00,
2013-11-05 03:34:00,32.2,27.6,30.56,SSE,154,0.0,0.0,83,0.00,,CLR,0.00,0.00,VWS V14.01,2013-11-05 08:34:00,
2013-11-05 03:39:00,32.1,27.5,30.56,SSE,154,0.0,0.0,83,0.00,,CLR,0.00,0.00,VWS V14.01,2013-11-05 08:39:00,
2013-11-05 03:44:00,32.1,27.8,30.56,SSE,154,0.0,0.0,84,0.00,,CLR,0.00,0.00,VWS V14.01,2013-11-05 08:44:00,
2013-11-05 03:49:00,32.1,27.8,30.55,SSE,154,0.0,0.0,84,0.00,,CLR,0.00,0.00,VWS V14.01,2013-11-05 08:49:00,
2013-11-05 03:55:00,32.1,27.8,30.55,SSE,154,0.0,0.0,84,0.00,,CLR,0.00,0.00,VWS V14.01,2013-11-05 08:55:00,
2013-11-05 04:00:00,31.9,27.6,30.55,SSE,154,0.0,0.0,84,0.00,,CLR,0.00,0.00,VWS V14.01,2013-11-05 09:00:00,
2013-11-05 04:05:00,31.9,27.6,30.56,SSE,154,0.0,0.0,84,0.00,,CLR,0.00,0.00,VWS V14.01,2013-11-05 09:05:00,
2013-11-05 04:10:00,31.9,27.6,30.56,SSE,154,0.0,0.0,84,0.00,,CLR,0.00,0.00,VWS V14.01,2013-11-05 09:10:00,
2013-11-05 04:15:00,31.8,27.5,30.56,SSE,154,0.0,0.0,84,0.00,,CLR,0.00,0.00,VWS V14.01,2013-11-05 09:15:00,
2013-11-05 04:20:00,31.7,27.4,30.58,SSE,154,0.0,0.0,84,0.00,,CLR,0.00,0.00,VWS V14.01,2013-11-05 09:20:00,
2013-11-05 04:25:00,31.5,27.2,30.58,SSE,154,0.0,0.0,84,0.00,,CLR,0.00,0.00,VWS V14.01,2013-11-05 09:25:00,
2013-11-05 04:30:00,31.5,27.5,30.58,SSE,154,0.0,0.0,85,0.00,,CLR,0.00,0.00,VWS V14.01,2013-11-05 09:30:00,
2013-11-05 04:35:00,31.4,27.4,30.58,SSE,154,0.0,0.0,85,0.00,,CLR,0.00,0.00,VWS V14.01,2013-11-05 09:35:00,
2013-11-05 04:40:00,31.2,26.9,30.58,SSE,154,0.0,0.0,84,0.00,,CLR,0.00,0.00,VWS V14.01,2013-11-05 09:40:00,
2013-11-05 04:45:00,31.1,26.8,30.58,SSE,154,0.0,0.0,84,0.00,,CLR,0.00,0.00,VWS V14.01,2013-11-05 09:45:00,
2013-11-05 04:50:00,30.9,26.9,30.58,SSE,154,0.0,0.0,85,0.00,,CLR,0.00,0.00,VWS V14.01,2013-11-05 09:50:00,
2013-11-05 04:55:00,30.8,26.8,30.58,SSE,154,0.0,0.0,85,0.00,,CLR,0.00,0.00,VWS V14.01,2013-11-05 09:55:00,
2013-11-05 05:01:00,30.8,26.8,30.58,SSE,154,0.0,0.0,85,0.00,,CLR,0.00,0.00,VWS V14.01,2013-11-05 10:01:00,
2013-11-05 05:06:00,30.8,27.1,30.58,SSE,154,0.0,0.0,86,0.00,,CLR,0.00,0.00,VWS V14.01,2013-11-05 10:06:00,
2013-11-05 05:11:00,30.8,27.1,30.58,SSE,154,0.0,0.0,86,0.00,,CLR,0.00,0.00,VWS V14.01,2013-11-05 10:11:00,
2013-11-05 05:16:00,30.8,27.1,30.58,SSE,154,0.0,0.0,86,0.00,,CLR,0.00,0.00,VWS V14.01,2013-11-05 10:16:00,
2013-11-05 05:21:00,30.8,27.1,30.58,SSE,154,0.0,0.0,86,0.00,,CLR,0.00,0.00,VWS V14.01,2013-11-05 10:21:00,
2013-11-05 05:26:00,30.8,27.1,30.58,SSE,154,0.0,0.0,86,0.00,,CLR,0.00,0.00,VWS V14.01,2013-11-05 10:26:00,
2013-11-05 05:31:00,30.9,27.5,30.58,SSE,154,0.0,0.0,87,0.00,,CLR,0.00,0.00,VWS V14.01,2013-11-05 10:31:00,
2013-11-05 05:36:00,31.1,27.4,30.59,SSE,154,0.0,0.0,86,0.00,,CLR,0.00,0.00,VWS V14.01,2013-11-05 10:36:00,
2013-11-05 05:41:00,30.9,27.2,30.59,SSE,154,0.0,0.0,86,0.00,,CLR,0.00,0.00,VWS V14.01,2013-11-05 10:41:00,
2013-11-05 05:46:00,30.9,27.2,30.59,SSE,154,0.0,0.0,86,0.00,,CLR,0.00,0.00,VWS V14.01,2013-11-05 10:46:00,
2013-11-05 05:51:00,30.9,27.2,30.59,SSE,154,0.0,0.0,86,0.00,,CLR,0.00,0.00,VWS V14.01,2013-11-05 10:51:00,
2013-11-05 05:56:00,30.9,27.5,30.59,SSE,154,0.0,0.0,87,0.00,,CLR,0.00,0.00,VWS V14.01,2013-11-05 10:56:00,
2013-11-05 06:01:00,30.9,27.5,30.59,SSE,154,0.0,0.0,87,0.00,,CLR,0.00,0.00,VWS V14.01,2013-11-05 11:01:00,
2013-11-05 06:07:00,31.1,27.7,30.59,SSE,154,0.0,0.0,87,0.00,,CLR,0.00,0.00,VWS V14.01,2013-11-05 11:07:00,
2013-11-05 06:12:00,31.1,27.7,30.59,SSE,154,0.0,0.0,87,0.00,,CLR,0.00,0.00,VWS V14.01,2013-11-05 11:12:00,
2013-11-05 06:17:00,31.2,27.8,30.59,SSE,154,0.0,0.0,87,0.00,,CLR,0.00,0.00,VWS V14.01,2013-11-05 11:17:00,
2013-11-05 06:22:00,31.1,27.4,30.59,SSE,154,0.0,2.0,86,0.00,,CLR,0.00,0.00,VWS V14.01,2013-11-05 11:22:00,
2013-11-05 06:27:00,30.9,27.2,30.59,SSE,154,0.0,0.0,86,0.00,,CLR,0.00,0.00,VWS V14.01,2013-11-05 11:27:00,
2013-11-05 06:32:00,30.9,27.2,30.59,SSE,154,0.0,0.0,86,0.00,,CLR,0.00,0.00,VWS V14.01,2013-11-05 11:32:00,
2013-11-05 06:37:00,30.8,26.8,30.59,SSE,154,0.0,0.0,85,0.00,,CLR,0.00,0.00,VWS V14.01,2013-11-05 11:37:00,
2013-11-05 06:42:00,30.8,26.8,30.59,SSE,154,0.0,0.0,85,0.00,,CLR,0.00,0.00,VWS V14.01,2013-11-05 11:42:00,
2013-11-05 06:47:00,30.8,26.8,30.59,SSE,154,0.0,0.0,85,0.00,,CLR,0.00,0.00,VWS V14.01,2013-11-05 11:47:00,
2013-11-05 06:52:00,30.8,26.8,30.59,SSE,154,0.0,0.0,85,0.00,,CLR,0.00,7.00,VWS V14.01,2013-11-05 11:52:00,
2013-11-05 06:57:00,30.6,26.6,30.59,SSE,154,0.0,0.0,85,0.00,,CLR,0.00,9.00,VWS V14.01,2013-11-05 11:57:00,
2013-11-05 07:02:00,30.6,26.9,30.59,SSE,154,0.0,0.0,86,0.00,,CLR,0.00,12.00,VWS V14.01,2013-11-05 12:02:00,
2013-11-05 07:07:00,30.6,26.9,30.59,SSE,154,0.0,0.0,86,0.00,,CLR,0.00,19.00,VWS V14.01,2013-11-05 12:07:00,
2013-11-05 07:13:00,30.8,27.1,30.59,SSE,154,0.0,0.0,86,0.00,,CLR,0.00,32.00,VWS V14.01,2013-11-05 12:13:00,
2013-11-05 07:18:00,30.8,27.1,30.59,SSE,154,0.0,0.0,86,0.00,,CLR,0.00,32.00,VWS V14.01,2013-11-05 12:18:00,
2013-11-05 07:23:00,30.9,27.2,30.59,SSE,154,0.0,0.0,86,0.00,,CLR,0.00,42.00,VWS V14.01,2013-11-05 12:23:00,
2013-11-05 07:28:00,30.9,27.2,30.59,SSE,154,0.0,0.0,86,0.00,,CLR,0.00,62.00,VWS V14.01,2013-11-05 12:28:00,
2013-11-05 07:33:00,31.1,27.4,30.60,SSE,154,0.0,0.0,86,0.00,,CLR,0.00,53.00,VWS V14.01,2013-11-05 12:33:00,
2013-11-05 07:38:00,31.2,27.5,30.60,SSE,154,0.0,0.0,86,0.00,,CLR,0.00,40.00,VWS V14.01,2013-11-05 12:38:00,
2013-11-05 07:43:00,31.2,27.5,30.60,SSE,154,0.0,0.0,86,0.00,,CLR,0.00,49.00,VWS V14.01,2013-11-05 12:43:00,
2013-11-05 07:48:00,31.4,27.4,30.61,SSE,154,0.0,0.0,85,0.00,,CLR,0.00,48.00,VWS V14.01,2013-11-05 12:48:00,
2013-11-05 07:53:00,31.5,27.5,30.61,SSE,154,0.0,0.0,85,0.00,,CLR,0.00,56.00,VWS V14.01,2013-11-05 12:53:00,
2013-11-05 07:58:00,31.7,27.7,30.61,SSE,154,0.0,0.0,85,0.00,,CLR,0.00,56.00,VWS V14.01,2013-11-05 12:58:00,
2013-11-05 08:03:00,31.7,27.7,30.62,SSE,154,0.0,0.0,85,0.00,,CLR,0.00,49.00,VWS V14.01,2013-11-05 13:03:00,
2013-11-05 08:08:00,31.9,27.9,30.62,SSE,154,0.0,0.0,85,0.00,,CLR,0.00,58.00,VWS V14.01,2013-11-05 13:08:00,
2013-11-05 08:14:00,32.1,28.1,30.62,SSE,154,0.0,0.0,85,0.00,,CLR,0.00,83.00,VWS V14.01,2013-11-05 13:14:00,
2013-11-05 08:19:00,32.4,28.4,30.62,SSE,154,0.0,0.0,85,0.00,,CLR,0.00,118.00,VWS V14.01,2013-11-05 13:19:00,
2013-11-05 08:24:00,32.7,28.7,30.62,SSE,154,0.0,0.0,85,0.00,,CLR,0.00,102.00,VWS V14.01,2013-11-05 13:24:00,
2013-11-05 08:29:00,33.1,28.8,30.62,SSE,154,0.0,0.0,84,0.00,,CLR,0.00,102.00,VWS V14.01,2013-11-05 13:29:00,
2013-11-05 08:34:00,33.4,29.1,30.62,SSE,154,0.0,0.0,84,0.00,,CLR,0.00,143.00,VWS V14.01,2013-11-05 13:34:00,
2013-11-05 08:39:00,33.9,29.3,30.62,SSE,154,0.0,0.0,83,0.00,,CLR,0.00,183.00,VWS V14.01,2013-11-05 13:39:00,
2013-11-05 08:44:00,34.2,29.0,30.62,SW,216,0.0,0.0,81,0.00,,CLR,0.00,130.00,VWS V14.01,2013-11-05 13:44:00,
2013-11-05 08:49:00,34.5,29.3,30.62,SW,216,0.0,0.0,81,0.00,,CLR,0.00,141.00,VWS V14.01,2013-11-05 13:49:00,
2013-11-05 08:54:00,34.6,29.4,30.62,SW,216,0.0,0.0,81,0.00,,CLR,0.00,111.00,VWS V14.01,2013-11-05 13:54:00,
2013-11-05 08:59:00,34.9,29.4,30.62,SW,217,0.0,0.0,80,0.00,,CLR,0.00,113.00,VWS V14.01,2013-11-05 13:59:00,
2013-11-05 09:04:00,35.0,29.2,30.63,SW,217,0.0,0.0,79,0.00,,CLR,0.00,127.00,VWS V14.01,2013-11-05 14:04:00,
2013-11-05 09:09:00,35.2,29.0,30.63,WNW,287,0.0,0.0,78,0.00,,CLR,0.00,165.00,VWS V14.01,2013-11-05 14:09:00,
2013-11-05 09:15:00,35.5,28.4,30.63,WNW,287,0.0,0.0,75,0.00,,CLR,0.00,216.00,VWS V14.01,2013-11-05 14:15:00,
2013-11-05 09:20:00,35.8,28.3,30.64,WNW,287,0.0,0.0,74,0.00,,CLR,0.00,162.00,VWS V14.01,2013-11-05 14:20:00,
2013-11-05 09:25:00,36.0,28.2,30.64,WNW,287,0.0,0.0,73,0.00,,CLR,0.00,199.00,VWS V14.01,2013-11-05 14:25:00,
2013-11-05 09:30:00,36.3,28.5,30.64,WNW,287,0.0,0.0,73,0.00,,CLR,0.00,185.00,VWS V14.01,2013-11-05 14:30:00,
2013-11-05 09:35:00,36.8,28.3,30.63,WNW,287,0.0,0.0,71,0.00,,CLR,0.00,222.00,VWS V14.01,2013-11-05 14:35:00,
2013-11-05 09:40:00,36.9,28.0,30.63,SSW,203,0.0,0.0,70,0.00,,CLR,0.00,202.00,VWS V14.01,2013-11-05 14:40:00,
2013-11-05 09:45:00,37.0,27.8,30.63,SSW,203,0.0,0.0,69,0.00,,CLR,0.00,176.00,VWS V14.01,2013-11-05 14:45:00,
2013-11-05 09:50:00,37.2,28.0,30.62,SSW,203,0.0,0.0,69,0.00,,CLR,0.00,188.00,VWS V14.01,2013-11-05 14:50:00,
2013-11-05 09:55:00,37.3,27.4,30.62,ENE,61,0.0,0.0,67,0.00,,CLR,0.00,236.00,VWS V14.01,2013-11-05 14:55:00,
2013-11-05 10:00:00,37.6,27.6,30.62,ENE,61,0.0,0.0,67,0.00,,CLR,0.00,197.00,VWS V14.01,2013-11-05 15:00:00,
2013-11-05 10:05:00,37.8,27.5,30.62,ENE,61,0.0,0.0,66,0.00,,CLR,0.00,204.00,VWS V14.01,2013-11-05 15:05:00,
2013-11-05 10:10:00,38.1,28.1,30.62,ENE,61,0.0,0.0,67,0.00,,CLR,0.00,243.00,VWS V14.01,2013-11-05 15:10:00,
2013-11-05 10:16:00,38.3,27.6,30.62,ENE,61,0.0,0.0,65,0.00,,CLR,0.00,255.00,VWS V14.01,2013-11-05 15:16:00,
2013-11-05 10:21:00,38.6,27.9,30.61,ENE,61,0.0,0.0,65,0.00,,CLR,0.00,201.00,VWS V14.01,2013-11-05 15:21:00,
2013-11-05 10:26:00,38.8,28.1,30.61,NNW,347,1.0,1.0,65,0.00,,CLR,0.00,223.00,VWS V14.01,2013-11-05 15:26:00,
2013-11-05 10:31:00,38.8,26.9,30.61,NNW,332,1.0,3.0,62,0.00,,CLR,0.00,264.00,VWS V14.01,2013-11-05 15:31:00,
2013-11-05 10:36:00,39.1,27.2,30.61,NW,322,0.0,2.0,62,0.00,,CLR,0.00,299.00,VWS V14.01,2013-11-05 15:36:00,
2013-11-05 10:41:00,39.5,27.6,30.61,NNW,329,0.0,2.0,62,0.00,,CLR,0.00,377.00,VWS V14.01,2013-11-05 15:41:00,
2013-11-05 10:46:00,40.2,27.8,30.61,NNW,329,0.0,1.0,61,0.00,,CLR,0.00,276.00,VWS V14.01,2013-11-05 15:46:00,
2013-11-05 10:51:00,40.3,26.7,30.59,NW,326,0.0,2.0,58,0.00,,CLR,0.00,271.00,VWS V14.01,2013-11-05 15:51:00,
2013-11-05 10:56:00,40.6,27.4,30.59,NNW,330,0.0,0.0,59,0.00,,CLR,0.00,283.00,VWS V14.01,2013-11-05 15:56:00,
2013-11-05 11:01:00,40.8,27.6,30.59,NNW,330,0.0,1.0,59,0.00,,CLR,0.00,285.00,VWS V14.01,2013-11-05 16:01:00,
2013-11-05 11:06:00,40.9,27.3,30.59,NNW,339,0.0,1.0,58,0.00,,CLR,0.00,292.00,VWS V14.01,2013-11-05 16:06:00,
2013-11-05 11:11:00,41.2,27.1,30.59,NNW,339,0.0,1.0,57,0.00,,CLR,0.00,317.00,VWS V14.01,2013-11-05 16:11:00,
2013-11-05 11:17:00,41.3,25.9,30.59,NNW,339,0.0,1.0,54,0.00,,CLR,0.00,380.00,VWS V14.01,2013-11-05 16:17:00,
2013-11-05 11:22:00,41.9,26.9,30.58,NNW,339,0.0,1.0,55,0.00,,CLR,0.00,704.00,VWS V14.01,2013-11-05 16:22:00,
2013-11-05 11:27:00,42.6,27.6,30.58,NNW,339,0.0,2.0,55,0.00,,CLR,0.00,424.00,VWS V14.01,2013-11-05 16:27:00,
2013-11-05 11:32:00,42.8,26.9,30.58,NNW,339,0.0,2.0,53,0.00,,CLR,0.00,274.00,VWS V14.01,2013-11-05 16:32:00,
2013-11-05 11:37:00,43.1,27.1,30.58,NNW,339,0.0,0.0,53,0.00,,CLR,0.00,260.00,VWS V14.01,2013-11-05 16:37:00,
2013-11-05 11:42:00,43.3,28.2,30.58,NNW,339,0.0,0.0,55,0.00,,CLR,0.00,290.00,VWS V14.01,2013-11-05 16:42:00,
2013-11-05 11:47:00,43.6,26.7,30.58,SSW,200,0.0,0.0,51,0.00,,CLR,0.00,322.00,VWS V14.01,2013-11-05 16:47:00,
2013-11-05 11:52:00,43.9,26.0,30.57,SSW,200,0.0,0.0,49,0.00,,CLR,0.00,401.00,VWS V14.01,2013-11-05 16:52:00,
2013-11-05 11:57:00,44.4,27.4,30.57,SE,138,0.0,2.0,51,0.00,,CLR,0.00,477.00,VWS V14.01,2013-11-05 16:57:00,
2013-11-05 12:02:00,44.7,26.2,30.57,SE,138,0.0,2.0,48,0.00,,CLR,0.00,304.00,VWS V14.01,2013-11-05 17:02:00,
2013-11-05 12:07:00,44.8,26.3,30.56,SE,138,0.0,0.0,48,0.00,,CLR,0.00,310.00,VWS V14.01,2013-11-05 17:07:00,
2013-11-05 12:12:00,45.0,28.0,30.56,North,0,0.0,2.0,51,0.00,,CLR,0.00,331.00,VWS V14.01,2013-11-05 17:12:00,
2013-11-05 12:17:00,45.2,27.2,30.56,ESE,121,1.0,1.0,49,0.00,,CLR,0.00,366.00,VWS V14.01,2013-11-05 17:17:00,
2013-11-05 12:23:00,45.4,27.4,30.55,South,178,0.0,2.0,49,0.00,,CLR,0.00,338.00,VWS V14.01,2013-11-05 17:23:00,
2013-11-05 12:28:00,45.5,25.9,30.55,East,96,0.0,3.0,46,0.00,,CLR,0.00,355.00,VWS V14.01,2013-11-05 17:28:00,
2013-11-05 12:33:00,46.0,26.4,30.53,ENE,73,1.0,3.0,46,0.00,,CLR,0.00,340.00,VWS V14.01,2013-11-05 17:33:00,
2013-11-05 12:38:00,46.1,26.5,30.53,ENE,73,0.0,2.0,46,0.00,,CLR,0.00,315.00,VWS V14.01,2013-11-05 17:38:00,
2013-11-05 12:43:00,46.4,28.3,30.53,NNW,342,0.0,2.0,49,0.00,,CLR,0.00,392.00,VWS V14.01,2013-11-05 17:43:00,
2013-11-05 12:48:00,46.6,25.9,30.53,NNW,342,0.0,2.0,44,0.00,,CLR,0.00,250.00,VWS V14.01,2013-11-05 17:48:00,
2013-11-05 12:53:00,47.0,27.3,30.53,North,10,0.0,2.0,46,0.00,,CLR,0.00,322.00,VWS V14.01,2013-11-05 17:53:00,
2013-11-05 12:58:00,47.5,26.1,30.53,North,8,0.0,2.0,43,0.00,,CLR,0.00,340.00,VWS V14.01,2013-11-05 17:58:00,
2013-11-05 13:03:00,47.9,26.5,30.52,East,95,0.0,2.0,43,0.00,,CLR,0.00,545.00,VWS V14.01,2013-11-05 18:03:00,
2013-11-05 13:08:00,48.5,27.0,30.52,NE,54,0.0,3.0,43,0.00,,CLR,0.00,422.00,VWS V14.01,2013-11-05 18:08:00,
2013-11-05 13:13:00,48.8,25.0,30.52,North,6,0.0,3.0,39,0.00,,CLR,0.00,282.00,VWS V14.01,2013-11-05 18:13:00,
2013-11-05 13:18:00,48.8,26.2,30.52,North,6,1.0,2.0,41,0.00,,CLR,0.00,232.00,VWS V14.01,2013-11-05 18:18:00,
2013-11-05 13:24:00,48.8,26.2,30.52,North,6,0.0,2.0,41,0.00,,CLR,0.00,204.00,VWS V14.01,2013-11-05 18:24:00,
2013-11-05 13:29:00,48.6,26.6,30.52,NE,45,1.0,2.0,42,0.00,,CLR,0.00,176.00,VWS V14.01,2013-11-05 18:29:00,
2013-11-05 13:34:00,48.6,25.4,30.51,NE,45,0.0,2.0,40,0.00,,CLR,0.00,171.00,VWS V14.01,2013-11-05 18:34:00,
2013-11-05 13:39:00,48.6,26.0,30.51,NE,45,0.0,0.0,41,0.00,,CLR,0.00,188.00,VWS V14.01,2013-11-05 18:39:00,
2013-11-05 13:44:00,48.6,24.8,30.51,NE,45,0.0,0.0,39,0.00,,CLR,0.00,257.00,VWS V14.01,2013-11-05 18:44:00,
2013-11-05 13:49:00,48.8,26.2,30.51,NE,45,0.0,0.0,41,0.00,,CLR,0.00,252.00,VWS V14.01,2013-11-05 18:49:00,
2013-11-05 13:54:00,48.9,26.8,30.51,NE,45,0.0,0.0,42,0.00,,CLR,0.00,197.00,VWS V14.01,2013-11-05 18:54:00,
2013-11-05 13:59:00,49.1,25.2,30.51,ENE,75,0.0,0.0,39,0.00,,CLR,0.00,185.00,VWS V14.01,2013-11-05 18:59:00,
2013-11-05 14:04:00,49.2,25.3,30.50,East,88,0.0,0.0,39,0.00,,CLR,0.00,174.00,VWS V14.01,2013-11-05 19:04:00,
2013-11-05 14:09:00,49.2,24.1,30.50,East,88,0.0,0.0,37,0.00,,CLR,0.00,167.00,VWS V14.01,2013-11-05 19:09:00,
2013-11-05 14:14:00,49.4,23.6,30.50,East,88,0.0,0.0,36,0.00,,CLR,0.00,165.00,VWS V14.01,2013-11-05 19:14:00,
2013-11-05 14:19:00,49.4,25.5,30.49,East,88,0.0,0.0,39,0.00,,CLR,0.00,153.00,VWS V14.01,2013-11-05 19:19:00,
2013-11-05 14:25:00,49.5,25.6,30.49,East,88,0.0,0.0,39,0.00,,CLR,0.00,139.00,VWS V14.01,2013-11-05 19:25:00,
2013-11-05 14:30:00,49.5,25.6,30.49,East,88,0.0,0.0,39,0.00,,CLR,0.00,114.00,VWS V14.01,2013-11-05 19:30:00,
2013-11-05 14:35:00,49.4,24.9,30.50,East,88,0.0,0.0,38,0.00,,CLR,0.00,113.00,VWS V14.01,2013-11-05 19:35:00,
2013-11-05 14:40:00,49.4,26.1,30.50,East,88,0.0,2.0,40,0.00,,CLR,0.00,118.00,VWS V14.01,2013-11-05 19:40:00,
2013-11-05 14:45:00,49.4,23.6,30.50,East,88,0.0,0.0,36,0.00,,CLR,0.00,135.00,VWS V14.01,2013-11-05 19:45:00,
2013-11-05 14:50:00,49.5,25.6,30.49,East,79,0.0,2.0,39,0.00,,CLR,0.00,143.00,VWS V14.01,2013-11-05 19:50:00,
2013-11-05 14:55:00,49.7,25.1,30.49,East,99,0.0,0.0,38,0.00,,CLR,0.00,246.00,VWS V14.01,2013-11-05 19:55:00,
2013-11-05 15:00:00,50.0,25.4,30.49,East,99,0.0,0.0,38,0.00,,CLR,0.00,274.00,VWS V14.01,2013-11-05 20:00:00,
2013-11-05 15:05:00,50.6,24.0,30.49,East,99,0.0,2.0,35,0.00,,CLR,0.00,252.00,VWS V14.01,2013-11-05 20:05:00,
2013-11-05 15:10:00,51.0,25.0,30.49,NNE,31,0.0,2.0,36,0.00,,CLR,0.00,246.00,VWS V14.01,2013-11-05 20:10:00,
2013-11-05 15:15:00,51.3,24.6,30.49,East,100,0.0,3.0,35,0.00,,CLR,0.00,255.00,VWS V14.01,2013-11-05 20:15:00,
2013-11-05 15:20:00,51.6,24.9,30.49,ENE,61,0.0,3.0,35,0.00,,CLR,0.00,255.00,VWS V14.01,2013-11-05 20:20:00,
2013-11-05 15:26:00,51.9,25.8,30.49,ENE,66,3.0,3.0,36,0.00,,CLR,0.00,385.00,VWS V14.01,2013-11-05 20:26:00,
2013-11-05 15:31:00,52.5,27.0,30.49,NE,37,2.0,6.0,37,0.00,,CLR,0.00,377.00,VWS V14.01,2013-11-05 20:31:00,
2013-11-05 15:36:00,52.8,28.5,30.48,ENE,78,1.0,3.0,39,0.00,,CLR,0.00,111.00,VWS V14.01,2013-11-05 20:36:00,
2013-11-05 15:41:00,52.3,28.1,30.48,NE,48,1.0,3.0,39,0.00,,CLR,0.00,104.00,VWS V14.01,2013-11-05 20:41:00,
2013-11-05 15:46:00,51.9,27.7,30.48,ENE,72,1.0,2.0,39,0.00,,CLR,0.00,111.00,VWS V14.01,2013-11-05 20:46:00,
2013-11-05 15:51:00,51.6,27.5,30.48,East,95,2.0,4.0,39,0.00,,CLR,0.00,164.00,VWS V14.01,2013-11-05 20:51:00,
2013-11-05 15:56:00,51.5,28.0,30.48,ENE,62,2.0,2.0,40,0.00,,CLR,0.00,132.00,VWS V14.01,2013-11-05 20:56:00,
2013-11-05 16:01:00,51.6,28.7,30.48,ENE,59,1.0,3.0,41,0.00,,CLR,0.00,220.00,VWS V14.01,2013-11-05 21:01:00,
2013-11-05 16:06:00,51.6,27.5,30.48,NE,40,1.0,5.0,39,0.00,,CLR,0.00,91.00,VWS V14.01,2013-11-05 21:06:00,
2013-11-05 16:11:00,51.5,28.0,30.48,East,82,2.0,5.0,40,0.00,,CLR,0.00,93.00,VWS V14.01,2013-11-05 21:11:00,
2013-11-05 16:16:00,51.3,27.2,30.48,East,93,1.0,4.0,39,0.00,,CLR,0.00,171.00,VWS V14.01,2013-11-05 21:16:00,
2013-11-05 16:21:00,51.3,28.4,30.47,East,89,1.0,4.0,41,0.00,,CLR,0.00,134.00,VWS V14.01,2013-11-05 21:21:00,
2013-11-05 16:26:00,51.2,28.3,30.47,ENE,64,1.0,2.0,41,0.00,,CLR,0.00,77.00,VWS V14.01,2013-11-05 21:26:00,
2013-11-05 16:32:00,51.0,27.5,30.47,East,79,0.0,5.0,40,0.00,,CLR,0.00,63.00,VWS V14.01,2013-11-05 21:32:00,
2013-11-05 16:37:00,50.9,28.1,30.46,NE,55,2.0,3.0,41,0.00,,CLR,0.00,56.00,VWS V14.01,2013-11-05 21:37:00,
2013-11-05 16:42:00,50.7,28.5,30.46,ENE,68,2.0,3.0,42,0.00,,CLR,0.00,30.00,VWS V14.01,2013-11-05 21:42:00,
2013-11-05 16:47:00,50.4,29.3,30.46,NE,55,3.0,3.0,44,0.00,,CLR,0.00,26.00,VWS V14.01,2013-11-05 21:47:00,
2013-11-05 16:52:00,50.0,29.0,30.47,NNE,32,0.0,3.0,44,0.00,,CLR,0.00,28.00,VWS V14.01,2013-11-05 21:52:00,
2013-11-05 16:57:00,49.7,29.2,30.47,ENE,69,0.0,2.0,45,0.00,,CLR,0.00,32.00,VWS V14.01,2013-11-05 21:57:00,
2013-11-05 17:02:00,49.4,29.0,30.47,East,86,0.0,3.0,45,0.00,,CLR,0.00,21.00,VWS V14.01,2013-11-05 22:02:00,
2013-11-05 17:07:00,49.1,29.2,30.47,East,90,0.0,1.0,46,0.00,,CLR,0.00,12.00,VWS V14.01,2013-11-05 22:07:00,
2013-11-05 17:12:00,48.6,28.8,30.47,East,95,0.0,1.0,46,0.00,,CLR,0.00,5.00,VWS V14.01,2013-11-05 22:12:00,
2013-11-05 17:17:00,48.4,28.6,30.47,East,95,2.0,2.0,46,0.00,,CLR,0.00,0.00,VWS V14.01,2013-11-05 22:17:00,
2013-11-05 17:22:00,48.1,28.8,30.47,ENE,71,1.0,3.0,47,0.00,,CLR,0.00,0.00,VWS V14.01,2013-11-05 22:22:00,
2013-11-05 17:28:00,47.8,29.1,30.47,East,80,1.0,2.0,48,0.00,,CLR,0.00,0.00,VWS V14.01,2013-11-05 22:28:00,
2013-11-05 17:33:00,47.5,28.8,30.47,East,96,0.0,2.0,48,0.00,,CLR,0.00,0.00,VWS V14.01,2013-11-05 22:33:00,
2013-11-05 17:38:00,47.2,29.0,30.47,East,96,0.0,1.0,49,0.00,,CLR,0.00,0.00,VWS V14.01,2013-11-05 22:38:00,
2013-11-05 17:43:00,46.9,29.2,30.47,East,96,0.0,1.0,50,0.00,,CLR,0.00,0.00,VWS V14.01,2013-11-05 22:43:00,
2013-11-05 17:48:00,46.6,28.5,30.48,East,96,1.0,2.0,49,0.00,,CLR,0.00,0.00,VWS V14.01,2013-11-05 22:48:00,
2013-11-05 17:53:00,46.4,28.8,30.48,East,96,1.0,2.0,50,0.00,,CLR,0.00,0.00,VWS V14.01,2013-11-05 22:53:00,
2013-11-05 17:58:00,46.1,28.5,30.48,East,96,0.0,2.0,50,0.00,,CLR,0.00,0.00,VWS V14.01,2013-11-05 22:58:00,
2013-11-05 18:03:00,46.0,28.4,30.49,ESE,117,2.0,2.0,50,0.00,,CLR,0.00,0.00,VWS V14.01,2013-11-05 23:03:00,
2013-11-05 18:08:00,45.8,28.2,30.49,ESE,112,1.0,2.0,50,0.00,,CLR,0.00,0.00,VWS V14.01,2013-11-05 23:08:00,
2013-11-05 18:13:00,45.7,27.6,30.49,SE,128,0.0,3.0,49,0.00,,CLR,0.00,0.00,VWS V14.01,2013-11-05 23:13:00,
2013-11-05 18:18:00,45.7,28.1,30.50,SE,128,0.0,0.0,50,0.00,,CLR,0.00,0.00,VWS V14.01,2013-11-05 23:18:00,
2013-11-05 18:23:00,45.5,28.0,30.50,SE,131,0.0,5.0,50,0.00,,CLR,0.00,0.00,VWS V14.01,2013-11-05 23:23:00,
2013-11-05 18:28:00,45.1,29.0,30.50,SE,131,0.0,0.0,53,0.00,,CLR,0.00,0.00,VWS V14.01,2013-11-05 23:28:00,
2013-11-05 18:34:00,44.7,29.1,30.49,SE,133,0.0,0.0,54,0.00,,CLR,0.00,0.00,VWS V14.01,2013-11-05 23:34:00,
2013-11-05 18:39:00,44.4,29.3,30.49,SE,131,0.0,0.0,55,0.00,,CLR,0.00,0.00,VWS V14.01,2013-11-05 23:39:00,
2013-11-05 18:44:00,44.2,30.4,30.49,SE,133,0.0,0.0,58,0.00,,CLR,0.00,0.00,VWS V14.01,2013-11-05 23:44:00,
2013-11-05 18:49:00,43.9,29.7,30.49,SE,133,0.0,0.0,57,0.00,,CLR,0.00,0.00,VWS V14.01,2013-11-05 23:49:00,
2013-11-05 18:54:00,43.6,29.8,30.49,SE,133,0.0,0.0,58,0.00,,CLR,0.00,0.00,VWS V14.01,2013-11-05 23:54:00,
2013-11-05 18:59:00,43.5,29.7,30.49,SE,133,0.0,0.0,58,0.00,,CLR,0.00,0.00,VWS V14.01,2013-11-05 23:59:00,
2013-11-05 19:04:00,43.5,29.7,30.48,SE,133,0.0,0.0,58,0.00,,CLR,0.00,0.00,VWS V14.01,2013-11-06 00:04:00,
2013-11-05 19:09:00,43.2,31.1,30.48,SE,131,0.0,0.0,62,0.00,,CLR,0.00,0.00,VWS V14.01,2013-11-06 00:09:00,
2013-11-05 19:14:00,43.1,31.0,30.48,SE,133,0.0,0.0,62,0.00,,CLR,0.00,0.00,VWS V14.01,2013-11-06 00:14:00,
2013-11-05 19:19:00,42.9,30.8,30.49,SE,133,0.0,0.0,62,0.00,,CLR,0.00,0.00,VWS V14.01,2013-11-06 00:19:00,
2013-11-05 19:24:00,42.6,30.9,30.49,SE,133,0.0,0.0,63,0.00,,CLR,0.00,0.00,VWS V14.01,2013-11-06 00:24:00,
2013-11-05 19:29:00,42.3,30.2,30.49,SE,133,0.0,0.0,62,0.00,,CLR,0.00,0.00,VWS V14.01,2013-11-06 00:29:00,
2013-11-05 19:35:00,42.1,30.4,30.48,SSE,164,0.0,0.0,63,0.00,,CLR,0.00,0.00,VWS V14.01,2013-11-06 00:35:00,
2013-11-05 19:40:00,41.8,30.5,30.48,SSE,164,0.0,0.0,64,0.00,,CLR,0.00,0.00,VWS V14.01,2013-11-06 00:40:00,
2013-11-05 19:45:00,41.6,30.7,30.48,SSE,164,0.0,0.0,65,0.00,,CLR,0.00,0.00,VWS V14.01,2013-11-06 00:45:00,
2013-11-05 19:50:00,41.5,31.4,30.49,SSE,164,0.0,0.0,67,0.00,,CLR,0.00,0.00,VWS V14.01,2013-11-06 00:50:00,
2013-11-05 19:55:00,41.6,30.7,30.49,SSE,164,0.0,0.0,65,0.00,,CLR,0.00,0.00,VWS V14.01,2013-11-06 00:55:00,
2013-11-05 20:00:00,41.8,30.5,30.49,SSE,164,0.0,0.0,64,0.00,,CLR,0.00,0.00,VWS V14.01,2013-11-06 01:00:00,
2013-11-05 20:05:00,41.9,31.8,30.48,SSE,164,0.0,0.0,67,0.00,,CLR,0.00,0.00,VWS V14.01,2013-11-06 01:05:00,
2013-11-05 20:10:00,41.9,32.5,30.48,SSE,164,0.0,0.0,69,0.00,,CLR,0.00,0.00,VWS V14.01,2013-11-06 01:10:00,
2013-11-05 20:15:00,41.9,32.1,30.48,SSE,164,0.0,0.0,68,0.00,,CLR,0.00,0.00,VWS V14.01,2013-11-06 01:15:00,
2013-11-05 20:20:00,41.8,31.3,30.47,SSE,164,0.0,0.0,66,0.00,,CLR,0.00,0.00,VWS V14.01,2013-11-06 01:20:00,
2013-11-05 20:25:00,41.9,31.8,30.47,SSE,164,0.0,0.0,67,0.00,,CLR,0.00,0.00,VWS V14.01,2013-11-06 01:25:00,
2013-11-05 20:30:00,41.9,32.5,30.47,SSE,164,0.0,0.0,69,0.00,,CLR,0.00,0.00,VWS V14.01,2013-11-06 01:30:00,
2013-11-05 20:35:00,41.8,31.7,30.47,SSE,164,0.0,0.0,67,0.00,,CLR,0.00,0.00,VWS V14.01,2013-11-06 01:35:00,
2013-11-05 20:40:00,41.8,32.0,30.47,SSE,164,0.0,0.0,68,0.00,,CLR,0.00,0.00,VWS V14.01,2013-11-06 01:40:00,
2013-11-05 20:46:00,41.6,32.2,30.47,SSE,164,0.0,0.0,69,0.00,,CLR,0.00,0.00,VWS V14.01,2013-11-06 01:46:00,
2013-11-05 20:51:00,41.6,32.2,30.48,SSE,164,0.0,0.0,69,0.00,,CLR,0.00,0.00,VWS V14.01,2013-11-06 01:51:00,
2013-11-05 20:56:00,41.5,32.5,30.48,SSE,164,0.0,0.0,70,0.00,,CLR,0.00,0.00,VWS V14.01,2013-11-06 01:56:00,
2013-11-05 21:01:00,41.5,32.1,30.48,SSE,164,0.0,0.0,69,0.00,,CLR,0.00,0.00,VWS V14.01,2013-11-06 02:01:00,
2013-11-05 21:06:00,41.5,32.5,30.48,SSE,164,0.0,0.0,70,0.00,,CLR,0.00,0.00,VWS V14.01,2013-11-06 02:06:00,
2013-11-05 21:11:00,41.3,32.3,30.48,SSE,164,0.0,0.0,70,0.00,,CLR,0.00,0.00,VWS V14.01,2013-11-06 02:11:00,
2013-11-05 21:16:00,41.3,31.9,30.48,SSE,164,0.0,0.0,69,0.00,,CLR,0.00,0.00,VWS V14.01,2013-11-06 02:16:00,
2013-11-05 21:21:00,41.3,32.3,30.48,SSE,164,0.0,0.0,70,0.00,,CLR,0.00,0.00,VWS V14.01,2013-11-06 02:21:00,
2013-11-05 21:26:00,41.3,32.3,30.48,SSE,164,0.0,0.0,70,0.00,,CLR,0.00,0.00,VWS V14.01,2013-11-06 02:26:00,
2013-11-05 21:31:00,41.2,32.2,30.48,SSE,164,0.0,0.0,70,0.00,,CLR,0.00,0.00,VWS V14.01,2013-11-06 02:31:00,
2013-11-05 21:36:00,41.1,32.4,30.47,SSE,164,0.0,0.0,71,0.00,,CLR,0.00,0.00,VWS V14.01,2013-11-06 02:36:00,
2013-11-05 21:41:00,40.9,32.2,30.47,SSE,164,0.0,0.0,71,0.00,,CLR,0.00,0.00,VWS V14.01,2013-11-06 02:41:00,
2013-11-05 21:47:00,40.9,32.2,30.47,SSE,164,0.0,0.0,71,0.00,,CLR,0.00,0.00,VWS V14.01,2013-11-06 02:47:00,
2013-11-05 21:52:00,40.9,32.6,30.47,SSE,164,0.0,0.0,72,0.00,,CLR,0.00,0.00,VWS V14.01,2013-11-06 02:52:00,
2013-11-05 21:57:00,40.9,32.9,30.47,SSE,164,0.0,0.0,73,0.00,,CLR,0.00,0.00,VWS V14.01,2013-11-06 02:57:00,
2013-11-05 22:02:00,40.9,32.9,30.47,SSE,164,0.0,0.0,73,0.00,,CLR,0.00,0.00,VWS V14.01,2013-11-06 03:02:00,
2013-11-05 22:07:00,40.8,32.8,30.47,SSE,164,0.0,0.0,73,0.00,,CLR,0.00,0.00,VWS V14.01,2013-11-06 03:07:00,
2013-11-05 22:12:00,40.8,32.5,30.47,SSE,164,0.0,0.0,72,0.00,,CLR,0.00,0.00,VWS V14.01,2013-11-06 03:12:00,
2013-11-05 22:17:00,40.6,32.6,30.47,SSE,164,0.0,0.0,73,0.00,,CLR,0.00,0.00,VWS V14.01,2013-11-06 03:17:00,
2013-11-05 22:22:00,40.5,32.5,30.45,SSE,164,0.0,0.0,73,0.00,,CLR,0.00,0.00,VWS V14.01,2013-11-06 03:22:00,
2013-11-05 22:27:00,40.3,32.3,30.45,SSE,164,0.0,0.0,73,0.00,,CLR,0.00,0.00,VWS V14.01,2013-11-06 03:27:00,
2013-11-05 22:32:00,40.2,32.2,30.45,SSE,164,0.0,0.0,73,0.00,,CLR,0.00,0.00,VWS V14.01,2013-11-06 03:32:00,
2013-11-05 22:37:00,40.2,32.2,30.45,SSE,164,0.0,0.0,73,0.00,,CLR,0.00,0.00,VWS V14.01,2013-11-06 03:37:00,
2013-11-05 22:42:00,40.2,32.2,30.45,SSE,164,0.0,0.0,73,0.00,,CLR,0.00,0.00,VWS V14.01,2013-11-06 03:42:00,
2013-11-05 22:47:00,40.1,32.5,30.45,SSE,164,0.0,0.0,74,0.00,,CLR,0.00,0.00,VWS V14.01,2013-11-06 03:47:00,
2013-11-05 22:52:00,40.1,33.2,30.44,SSE,164,0.0,0.0,76,0.00,,CLR,0.00,0.00,VWS V14.01,2013-11-06 03:52:00,
2013-11-05 22:58:00,39.9,33.0,30.44,SSE,164,0.0,0.0,76,0.00,,CLR,0.00,0.00,VWS V14.01,2013-11-06 03:58:00,
2013-11-05 23:03:00,39.9,32.6,30.44,SSE,164,0.0,0.0,75,0.00,,CLR,0.00,0.00,VWS V14.01,2013-11-06 04:03:00,
2013-11-05 23:08:00,39.9,32.6,30.44,SSE,164,0.0,0.0,75,0.00,,CLR,0.00,0.00,VWS V14.01,2013-11-06 04:08:00,
2013-11-05 23:13:00,39.9,32.6,30.44,SSE,164,0.0,0.0,75,0.00,,CLR,0.00,0.00,VWS V14.01,2013-11-06 04:13:00,
2013-11-05 23:18:00,39.9,33.0,30.43,SSE,164,0.0,0.0,76,0.00,,CLR,0.00,0.00,VWS V14.01,2013-11-06 04:18:00,
2013-11-05 23:23:00,39.8,32.9,30.43,SSE,164,0.0,0.0,76,0.00,,CLR,0.00,0.00,VWS V14.01,2013-11-06 04:23:00,
2013-11-05 23:28:00,39.8,32.9,30.43,SSE,164,0.0,0.0,76,0.00,,CLR,0.00,0.00,VWS V14.01,2013-11-06 04:28:00,
2013-11-05 23:33:00,39.6,33.0,30.43,SSE,164,0.0,0.0,77,0.00,,CLR,0.00,0.00,VWS V14.01,2013-11-06 04:33:00,
2013-11-05 23:38:00,39.5,32.9,30.43,SSE,164,0.0,0.0,77,0.00,,CLR,0.00,0.00,VWS V14.01,2013-11-06 04:38:00,
2013-11-05 23:43:00,39.3,33.0,30.43,SSE,164,0.0,0.0,78,0.00,,CLR,0.00,0.00,VWS V14.01,2013-11-06 04:43:00,
2013-11-05 23:48:00,39.2,32.9,30.43,SSE,164,0.0,0.0,78,0.00,,CLR,0.00,0.00,VWS V14.01,2013-11-06 04:48:00,
2013-11-05 23:54:00,38.9,32.6,30.43,SSE,164,0.0,0.0,78,0.00,,CLR,0.00,0.00,VWS V14.01,2013-11-06 04:54:00,
2013-11-05 23:59:00,38.6,32.7,30.43,SSE,164,0.0,0.0,79,0.00,,CLR,0.00,0.00,VWS V14.01,2013-11-06 04:59:00,